#timestamp,LO_Frequency,Hit,StdDev 
1667786415.4,286046998.0,N
1667786435.3,286046998.9,N
1667786455.1,286046999.3,N
1667786456.0,286046999.3,N
1667786475.8,286046998.3,N
1667786495.7,286047000.7,N
1667786515.5,286047000.5,N
1667786535.3,286046999.1,N
1667786555.2,286046996.5,N
1667786575.0,286046997.0,N
1667786575.9,286046997.0,N
1667786595.8,286046995.4,N
1667786615.6,286046995.7,N
1667786635.4,286046996.4,N
1667786655.3,286046995.6,N
1667786675.1,286046999.2,N
1667786695.9,286046998.5,N
1667786715.7,286047001.1,N
1667786735.5,286047001.0,N
1667786755.4,286046998.2,N
1667786775.2,286047001.2,N
1667786795.1,286047001.0,N
1667786796.0,286047001.0,N
1667786815.8,286046998.2,N
1667786835.6,286046999.1,N
1667786855.5,286046998.5,N
1667786875.3,286046996.6,N
1667786895.1,286046999.4,N
1667786915.9,286046998.8,N
1667786935.7,286046998.4,N
1667786955.6,286046998.7,N
1667786975.4,286046998.6,N
1667786995.2,286046997.5,N
1667787015.1,286046996.9,N
1667787016.0,286046996.9,N
1667787035.8,286046995.9,N
1667787055.7,286046995.3,N
1667787075.5,286046997.8,N
1667787095.3,286046996.6,N
1667787115.2,286046999.4,N
1667787135.9,286046997.4,N
1667787155.7,286046997.7,N
1667787175.6,286046999.6,N
1667787195.4,286046997.2,N
1667787215.3,286046996.9,N
1667787235.1,286046997.0,N
1667787236.0,286046997.0,N
1667787255.8,286046997.1,N
1667787275.7,286046996.5,N
1667787295.5,286047000.3,N
1667787315.3,286047000.9,N
1667787335.2,286047002.6,N
1667787355.0,286047002.8,N
1667787355.9,286047002.8,N
1667787375.8,286047000.9,N
1667787395.6,286047002.8,N
1667787415.4,286046999.8,N
1667787435.3,286047001.0,N
1667787455.1,286046999.2,N
1667787475.9,286046998.3,N
1667787495.7,286046999.0,N
1667787515.5,286046997.4,N
1667787535.4,286046996.7,N
1667787555.2,286046996.5,N
1667787575.1,286046998.5,N
1667787576.0,286046998.5,N
1667787595.8,286046998.2,N
1667787615.7,286046999.5,N
1667787635.5,286046996.9,N
1667787655.3,286046998.8,N
1667787675.2,286046998.3,N
1667787695.9,286047001.2,N
1667787715.7,286046999.9,N
1667787735.6,286047002.8,N
1667787755.4,286046999.9,N
1667787775.2,286046998.7,N
1667787795.1,286046998.2,N
1667787796.0,286046998.2,N
1667787815.8,286046999.2,N
1667787835.7,286046999.6,N
1667787855.5,286046995.5,N
1667787875.4,286046998.8,N
1667787895.2,286046999.3,N
1667787915.0,286046999.6,N
1667787915.9,286046999.6,N
1667787935.8,286046996.6,N
1667787955.6,286047000.7,N
1667787975.5,286047000.3,N
1667787995.3,286047002.8,N
1667788015.1,286046999.7,N
1667788035.9,286047001.2,N
1667788055.7,286046998.8,N
1667788075.5,286047001.2,N
1667788095.4,286046999.9,N
1667788115.2,286047000.5,N
1667788135.1,286047002.3,N
1667788136.0,286047002.3,N
1667788155.8,286047000.8,N
1667788175.6,286046999.9,N
1667788195.5,286047002.7,N
1667788215.3,286047001.2,N
1667788235.2,286046999.3,N
1667788255.9,286046999.6,N
1667788275.7,286046997.6,N
1667788295.6,286046996.0,N
1667788315.4,286046995.3,N
1667788335.2,286046997.6,N
1667788355.1,286046993.3,Y
1667788356.0,286046993.3,P
1667788375.8,286046996.1,N
1667788395.7,286046999.6,N
1667788415.5,286047000.7,N
1667788435.3,286046999.8,N
1667788455.2,286047001.0,N
1667788475.9,286047001.0,N
1667788495.7,286047000.1,N
1667788515.6,286047002.4,N
1667788535.4,286046999.8,N
1667788555.2,286047000.2,N
1667788575.1,286047001.1,N
1667788595.8,286046996.8,N
1667788615.7,286046999.6,N
1667788635.5,286046997.7,N
1667788655.4,286046998.0,N
1667788675.2,286046995.0,N
1667788695.0,286046997.2,N
1667788695.9,286046997.2,N
1667788715.8,286046996.5,N
1667788735.6,286046998.6,N
1667788755.4,286046996.7,N
1667788775.3,286046996.9,N
1667788795.1,286046998.9,N
1667788815.9,286047001.0,N
1667788835.7,286047002.6,N
1667788855.5,286046999.7,N
1667788875.4,286047002.3,N
1667788895.2,286047001.9,N
1667788915.0,286047002.9,N
1667788916.0,286047002.9,N
1667788935.8,286047002.9,N
1667788955.6,286047003.0,N
1667788975.5,286047003.3,N
1667788995.3,286047001.6,N
1667789015.1,286047002.7,N
1667789035.9,286047000.2,N
1667789055.7,286046999.8,N
1667789075.5,286047002.8,N
1667789095.4,286047004.3,N
1667789115.2,286047002.4,N
1667789135.1,286047001.8,N
1667789136.0,286047001.8,N
1667789155.8,286047003.4,N
1667789175.6,286047000.2,N
1667789195.5,286047000.3,N
1667789215.3,286046999.2,N
1667789235.1,286046996.9,N
1667789255.9,286046998.7,N
1667789275.7,286046998.9,N
1667789295.6,286046999.1,N
1667789315.4,286047000.5,N
1667789335.2,286047002.7,N
1667789355.1,286047002.0,N
1667789356.0,286047002.0,N
1667789375.8,286047001.3,N
1667789395.7,286047003.2,N
1667789415.5,286047004.1,N
1667789435.3,286047003.9,N
1667789455.2,286047000.8,N
1667789475.9,286046999.6,N
1667789495.7,286047000.5,N
1667789515.6,286046998.1,N
1667789535.4,286046996.9,N
1667789555.3,286046996.9,N
1667789575.1,286046997.8,N
1667789576.0,286046997.8,N
1667789595.8,286046994.9,N
1667789615.7,286046999.2,N
1667789635.5,286047000.9,N
1667789655.3,286046998.8,N
1667789675.2,286047001.1,N
1667789695.0,286046998.5,N
1667789695.9,286046998.5,N
1667789715.8,286047000.5,N
1667789735.6,286046998.9,N
1667789755.4,286046999.4,N
1667789775.3,286046999.0,N
1667789795.1,286046998.1,N
1667789815.8,286046998.5,N
1667789835.7,286047000.5,N
1667789855.5,286047000.0,N
1667789875.4,286047000.9,N
1667789895.2,286047000.1,N
1667789915.0,286047002.1,N
1667789915.9,286047002.1,N
1667789935.8,286047002.5,N
1667789955.6,286047001.7,N
1667789975.4,286047004.4,N
1667789995.3,286047001.8,N
